Regional Weather Roundup
Issued by NWS

Home | Current Version | Previous Version | Graphics & Text | Print | Product List | Glossary On
Versions: 1 2 3 4 5 6 7 8 9 10 11 12 13 14 15 16 17 18 19 20 21 22 23 24 25 26 27 28 29 30 31 32 33 34 35 36 37 38 39 40 41 42 43 44 45 46 47 48 49 50
000
ASUS43 KMKX 280521
RWRWI

WISCONSIN REGIONAL WEATHER ROUNDUP
NATIONAL WEATHER SERVICE MILWAUKEE/SULLIVAN WI
1100 PM CST SAT DEC 27 2014

NOTE: "FAIR" INDICATES FEW OR NO CLOUDS BELOW 12,000 FEET WITH NO
SIGNIFICANT WEATHER AND/OR OBSTRUCTIONS TO VISIBILITY.

WIZ001-002-006>008-014>016-023>028-280600-
NORTHWEST WISCONSIN

CITY           SKY/WX    TMP DP  RH WIND       PRES   REMARKS
SUPERIOR ARPT  MOCLDY    21  12  67 W8        30.04R WCI  12
ASHLAND        CLOUDY    19  11  70 SW8       30.02S WCI   9
HAYWARD        PTCLDY    17  10  74 SW6       30.03R WCI   9
SIREN          CLEAR     14   9  81 SW7       30.06F WCI   3
CUMBERLAND     CLEAR     10   7  85 W7        30.06R WCI   0
RICE LAKE      CLEAR     13   8  81 SW6       30.09R WCI   4
CHETEK         MOCLDY    13  10  84 CALM      30.08R
LADYSMITH      CLOUDY    13  11  91 S5        30.06S WCI   5
EAU CLAIRE     CLEAR     12   5  73 SW6       30.11R WCI   3
MENOMONIE      PTCLDY    12   6  76 SW5       30.12R WCI   4
NEW RICHMOND   CLEAR      8   5  88 S5        30.11S WCI   0
OSCEOLA        MOCLDY    11   7  85 SW6       30.13S WCI   2
$$

WIZ003>005-009-010-017-018-280600-
NORTH CENTRAL WISCONSIN

CITY           SKY/WX    TMP DP  RH WIND       PRES   REMARKS
MANITOWISH WTR MOCLDY    12  10  92 W5        29.97S WCI   4
ARBOR VITAE    PTCLDY    14  12  92 W5        29.98R WCI   6
WOODRUFF       PTCLDY    14  12  92 W5        29.98R WCI   6
RHINELANDER    PTCLDY     9   7  92 W6        29.99S WCI  -1
EAGLE RIVER    PTCLDY    11  11  98 SW6       29.97R WCI   2
LAND O LAKES   MOCLDY    15  13  89 W6        29.96S WCI   7
PHILLIPS       CLOUDY    14  11  90 SW6       30.00S WCI   5
TOMAHAWK       CLEAR     13  11  91 CALM      30.02R
MEDFORD        PTCLDY    13  11  91 W6        30.03S WCI   4
MERRILL        CLEAR     10   9  94 CALM      30.04R FOG
$$

WIZ029-030-035-036-043>047-280600-
CENTRAL WISCONSIN

CITY           SKY/WX    TMP DP  RH WIND       PRES   REMARKS
WAUSAU         MOCLDY    17  13  84 W9        30.04S WCI   6
MOSINEE        CLEAR     14  14 100 SW7       30.06S WCI   4
MARSHFIELD     CLEAR     16  12  84 W9        30.06R WCI   4
STEVENS POINT  PTCLDY    19  16  89 W7        30.08S WCI   9
WAUPACA        CLEAR     24  18  78 W7        30.09S WCI  16
WAUTOMA        CLEAR     22  19  88 W6        30.11R WCI  15
WISC RAPIDS    CLEAR     20  15  81 VRB7      30.10S WCI  11
CAMP DOUGLAS   CLEAR     19  19  99 W8        30.11S WCI   9
$$

WIZ011>013-019>022-031-037>040-048>050-280600-
NORTHEAST WISCONSIN

CITY           SKY/WX    TMP DP  RH WIND       PRES   REMARKS
ANTIGO         CLEAR     12  11  95 W8        30.02S WCI   0
SHAWANO        CLEAR     25  19  77 W9        30.07R WCI  15
OCONTO         PTCLDY    27  21  79 W12G18    30.05R WCI  16
STURGEON BAY   CLEAR     28  19  69 W12G17    30.04R WCI  18
GREEN BAY      PTCLDY    27  20  75 W14       30.07R WCI  16
MANITOWOC      CLOUDY    30  25  81 W12G20    30.06R WCI  20
APPLETON       PTCLDY    25  18  74 W15G22    30.08R WCI  12
CLINTONVILLE   CLEAR     23  18  80 W7        30.08R WCI  15
OSHKOSH        CLOUDY    27  19  72 W13       30.09R WCI  16
$$

WIZ032>034-041-042-053>061-280600-
SOUTHWEST WISCONSIN

CITY           SKY/WX    TMP DP  RH WIND       PRES   REMARKS
LA CROSSE      CLEAR     17   9  70 SW3       30.16F
SPARTA         CLEAR     19  15  84 W6        30.14S WCI  11
VIROQUA        CLEAR     17  15  92 W7        30.11F WCI   7
BOSCOBEL       CLEAR     21  14  74 W5        30.17S WCI  15
PRAIRIE DU CHI CLEAR     19  12  72 W5        30.19R WCI  13
PLATTEVILLE    CLEAR     21  18  88 W6        30.15F WCI  13
$$

WIZ056-057-062-063-064-067-068-280600-
SOUTH CENTRAL WISCONSIN

CITY           SKY/WX    TMP DP  RH WIND       PRES   REMARKS
REEDSBURG      CLEAR     22  18  84 W6        30.12S WCI  14
BARABOO/DELLS  CLEAR     22  18  85 W5        30.11S WCI  15
LONE ROCK      CLEAR     26  16  65 W13       30.15S WCI  15
MINERAL POINT  PTCLDY    23  19  86 W8        30.12S WCI  14
MADISON        MOCLDY    27  19  72 W7        30.12R WCI  19
MIDDLETON      CLOUDY    26  20  77 W10       30.12S WCI  16
WATERTOWN      CLOUDY    29  22  76 NW8       30.10S WCI  21
MONROE         CLOUDY    25  21  86 W12       30.11F WCI  14
JANESVILLE     CLOUDY    30  23  74 W8        30.13R WCI  23
$$

WIZ051-052-058>065-066-070>072-280600-
SOUTHEAST WISCONSIN

CITY           SKY/WX    TMP DP  RH WIND       PRES   REMARKS
MILWAUKEE      CLOUDY    31  22  69 W13       30.09R WCI  21
WAUKESHA       CLOUDY    28  21  74 W8        30.10S WCI  20
MILWAUKEE/TIMM CLOUDY    30  21  69 W9        30.09S WCI  22
RACINE         MOCLDY    31  23  72 NW9       30.10S WCI  23
BURLINGTON     CLOUDY    29  23  77 W7        30.10F WCI  22
KENOSHA        CLOUDY    32  24  72 W16       30.08F WCI  21
FOND DU LAC    MOCLDY    26  18  71 NW14      30.10R WCI  14
SHEBOYGAN      CLOUDY    29  21  72 W16       30.07R WCI  17
WEST BEND      CLOUDY    30  21  69 W13G18    30.08R WCI  20
JUNEAU         CLOUDY    27  20  75 W9G18     30.11R WCI  17
$$

LSZ147-162-280600-
LAKE SUPERIOR

STATION/POSITION TIME  TEMP    WIND        PRES    WAVE
                       AIR SEA DIR/SP/G            HT/PER
                 (UTC) (F)     (DEG/KT/KT) (MB)    (FT/S)
DEVILS ISLAND    0500   24     280/ 19/ 23 1016.9R
PORT WING        0400   26     260/ 11/ 17 1016.6S
SAXON HARBOR     0400   21     210/  6/  9 1016.6
$$

LMZ867-665-643>646-280600-
LAKE MICHIGAN

STATION/POSITION TIME  TEMP    WIND        PRES    WAVE
                       AIR SEA DIR/SP/G            HT/PER
                 (UTC) (F)     (DEG/KT/KT) (MB)    (FT/S)
CHAMBERS ISLAND  0400   31     230/  6/ 12 1016.3R
NORTHPORT PIER   0500   30     290/ 11/ 21 1016.3R
SISTER BAY       0428          310/ 21/ 25   N/A
ALGOMA LAKESHORE 0245          300/  6/ 12   N/A
KEWAUNEE LAKESHO 0400   32     290/  9/ 15 1015.8R
SHEBOYGAN LAKESH 0500   30 38  280/ 10/ 12 1018.9R
PORT WASHINGTON  0400   31     280/  9/ 17 1019.3R
MILWAUKEE LAKESH 0500   31     280/  9/ 11   N/A
KENOSHA   LAKESH 0500   32     280/ 10/ 14 1018.6F
$$

TC  - TEMPERATURE IN CELSIUS
VSB - VISIBILITY IN STATUTE MILES
WCI - WIND CHILL INDEX
HX  - HEAT INDEX



USA.gov is the U.S. government's official web portal to all federal, state and local government web resources and services.